EW0413 Weather Reports


time (UTC)temp
F
wind
direction
speed
knots
gust
knots
rain 1hr
in
rain 24hr
in
rain mn
in
humidity
%
barometer
mb
20260906021506 72 20 1.7 7.8 0.00 0.00 0.00 92 1012.3
20260906020048 73 338 1.7 10.4 0.00 0.00 0.00 91 1012.3
20260906014551 73 13 1.7 4.3 0.00 0.00 0.00 91 1012.3
20260906013028 73 296 2.6 7.0 0.00 0.00 0.00 91 1012.2
20260906011526 73 319 2.6 9.6 0.00 0.00 0.00 90 1012.0
20260906010033 73 360 3.5 9.6 0.00 0.00 0.00 90 1011.6
20260906004507 74 327 4.3 9.6 0.00 0.00 0.00 90 1011.2
20260906003005 74 303 3.5 9.6 0.00 0.00 0.00 90 1011.2
20260906001503 75 293 2.6 5.2 0.00 0.00 0.00 89 1011.3
20260906000001 75 302 1.7 6.1 0.00 0.00 0.00 89 1011.1
20260905234603 75 300 3.5 7.8 0.00 0.00 0.00 87 1011.1
20260905233059 76 31 1.7 7.0 0.00 0.00 0.00 88 1011.1
20260905231558 76 347 2.6 9.6 0.00 0.00 0.00 87 1011.0
20260905230045 77 327 2.6 8.7 0.00 0.00 0.00 86 1010.7
20260905224544 77 313 2.6 12.2 0.00 0.00 0.00 87 1010.6
20260905223030 77 25 4.3 10.4 0.00 0.00 0.00 86 1010.8
20260905221518 79 343 3.5 13.0 0.00 0.00 0.00 84 1010.7
20260905220059 80 55 5.2 11.3 0.00 0.00 0.00 84 1010.6
20260905214559 80 332 4.3 10.4 0.00 0.00 0.00 83 1010.4
20260905213051 80 323 1.7 11.3 0.00 0.00 0.00 83 1010.3
20260905211545 81 339 4.3 10.4 0.00 0.00 0.00 82 1010.2
20260905210021 82 286 3.5 8.7 0.00 0.00 0.00 81 1010.2
20260905204525 83 340 3.5 10.4 0.00 0.00 0.00 80 1010.2
20260905203008 83 39 4.3 7.8 0.00 0.00 0.00 79 1010.3
20260905201507 83 29 3.5 12.2 0.00 0.00 0.00 79 1010.2
20260905200007 84 320 4.3 9.6 0.00 0.00 0.00 80 1010.1
20260905194506 84 324 4.3 9.6 0.00 0.00 0.00 78 1010.2
20260905193005 85 340 2.6 7.0 0.00 0.00 0.00 78 1010.2
20260905191506 85 302 2.6 6.1 0.00 0.00 0.00 80 1010.4
20260905190005 85 321 1.7 6.1 0.00 0.00 0.00 80 1010.4
20260905184504 85 40 1.7 8.7 0.00 0.00 0.00 78 1010.4
20260905183114 86 309 1.7 9.6 0.00 0.00 0.00 78 1010.4
20260905181558 86 77 2.6 7.0 0.00 0.00 0.00 80 1010.2
20260905180058 86 11 2.6 7.8 0.00 0.00 0.00 81 1010.2
20260905174555 87 298 2.6 6.1 0.00 0.00 0.00 81 1010.2
20260905173053 86 287 3.5 8.7 0.00 0.00 0.00 83 1010.2
20260905171554 85 294 1.7 9.6 0.00 0.00 0.00 85 1010.4
20260905164604 85 307 1.7 6.1 0.00 0.00 0.00 84 1010.6
20260905163056 85 25 1.7 5.2 0.00 0.00 0.00 85 1010.6
20260905161555 85 51 1.7 6.1 0.00 0.00 0.00 85 1010.6
20260905154535 85 308 3.5 7.8 0.00 0.00 0.00 84 1010.4
20260905153032 85 319 1.7 6.1 0.00 0.00 0.00 86 1010.3
20260905151536 84 77 0.9 6.1 0.00 0.00 0.00 87 1010.1
20260905144512 84 299 0.9 5.2 0.00 0.00 0.00 89 1009.9
20260905143003 83 324 0.0 2.6 0.00 0.00 0.00 90 1009.7
20260905141541 82 301 0.9 3.5 0.00 0.00 0.00 91 1009.8
20260905140045 81 335 0.9 4.3 0.00 0.00 0.00 92 1010.2
20260905134523 80 303 1.7 5.2 0.00 0.00 0.00 93 1010.2
20260905133013 79 295 0.0 0.0 0.00 0.00 0.00 96 1009.9
20260905131615 78 319 0.0 0.9 0.00 0.00 0.00 96 1009.7
20260905130058 78 319 0.0 0.9 0.00 0.00 0.00 97 1009.5
20260905124556 77 319 0.0 0.0 0.00 0.00 0.00 98 1009.5
20260905123103 76 319 0.0 0.0 0.00 0.00 0.00 99 1009.4
20260905121555 75 319 0.0 0.0 0.00 0.00 0.00 98 1009.3
20260905120053 74 319 0.0 0.0 0.00 0.00 0.00 98 1009.2
20260905114551 74 319 0.0 0.0 0.00 0.00 0.00 98 1009.2
20260905113053 74 319 0.0 0.0 0.00 0.00 0.00 98 1009.2
20260905111536 74 319 0.0 0.0 0.00 0.00 0.00 98 1009.1
20260905110036 74 319 0.0 0.0 0.00 0.00 0.00 98 1008.9
20260905104515 74 297 0.0 0.0 0.00 0.00 0.00 98 1008.9
20260905103014 75 297 0.0 0.0 0.00 0.00 0.00 98 1009.0
20260905101556 75 297 0.0 0.0 0.00 0.00 0.00 98 1009.0
20260905100058 75 297 0.0 0.0 0.00 0.00 0.00 98 1009.0
20260905094538 75 297 0.0 0.0 0.00 0.00 0.00 97 1009.1
20260905093037 75 297 0.0 0.0 0.00 0.00 0.00 98 1009.0
20260905091520 74 295 0.0 0.0 0.00 0.00 0.00 97 1008.9
20260905090025 75 295 0.0 0.0 0.00 0.00 0.00 97 1008.9
20260905084501 74 295 0.0 0.0 0.00 0.00 0.00 98 1008.9
20260905083101 74 295 0.0 0.0 0.00 0.00 0.00 97 1008.9
20260905081542 75 295 0.0 0.0 0.00 0.00 0.00 97 1008.8
20260905080041 75 295 0.0 0.0 0.00 0.00 0.00 97 1008.7
20260905074524 75 295 0.0 0.0 0.00 0.00 0.00 96 1008.7
20260905073019 76 295 0.0 0.9 0.00 0.00 0.00 97 1008.7
20260905071502 76 57 0.0 0.0 0.00 0.00 0.00 97 1008.6
20260905064544 76 57 0.0 0.0 0.00 0.00 0.00 97 1008.9
20260905063043 77 57 0.0 0.0 0.00 0.00 0.00 97 1009.1
20260905061541 77 57 0.0 0.0 0.00 0.00 0.00 97 1009.1
20260905060039 77 57 0.0 0.0 0.00 0.00 0.00 97 1009.2
20260905054538 77 57 0.0 0.0 0.00 0.00 0.00 96 1009.3
20260905053036 77 57 0.0 0.0 0.00 0.00 0.00 97 1009.4
20260905051535 77 92 0.0 0.0 0.00 0.00 0.00 97 1009.2
20260905050031 77 92 0.0 0.0 0.00 0.00 0.00 96 1009.4
20260905044517 78 92 0.0 0.0 0.00 0.00 0.00 96 1009.5
20260905043013 78 92 0.0 0.0 0.00 0.00 0.00 96 1009.6
20260905041555 78 92 0.0 0.0 0.00 0.00 0.00 95 1009.5
20260905040055 79 92 0.0 0.0 0.00 0.00 0.00 96 1009.8
20260905034546 79 92 0.0 0.0 0.00 0.00 0.00 96 1009.7
20260905033036 79 92 0.0 0.0 0.00 0.00 0.00 96 1009.8
20260905031519 79 92 0.0 0.0 0.00 0.00 0.00 96 1009.9
20260905030018 79 92 0.0 0.0 0.00 0.00 0.00 96 1010.1
20260905024603 79 92 0.0 0.0 0.00 0.00 0.00 95 1009.9
20260905023058 79 92 0.0 0.0 0.00 0.00 0.00 95 1009.7